Detroit Lakes, MN

7:28 PM CST on December 05, 2016 (GMT -0600)
Detroit Lakes

Weather History for KDTL - January, 2014

Change the Weather History Date:

Thursday, January 23, 2014

  Actual Average Record
Temperature  
Mean Temperature -5 °F -  
Max Temperature 12 °F 18 °F 48 °F (1942)
Min Temperature -22 °F -3 °F -42 °F (1936)
Degree Days  
Heating Degree Days 70    
Moisture  
Dew Point -15 °F    
Average Humidity 76    
Maximum Humidity 85    
Minimum Humidity 67    
Precipitation  
Precipitation 0.00 in - - ()
Sea Level Pressure  
Sea Level Pressure 30.44 in    
Wind  
Wind Speed 8 mph (WSW)    
Max Wind Speed 22 mph    
Max Gust Speed 31 mph    
Visibility 10 miles    
Events Snow    
Averages and records for this station are not official NWS values.
T = Trace of Precipitation, MM = Missing Value Source: NWS Daily Summary

Daily Weather History Graph

Daily Weather History Graph

Search for Another Location

Airport or City:

Trip Planner

Search our weather history database for the weather conditions in past years. The results will help you decide how hot, cold, wet, or windy it might be!

Date:

Astronomy

Jan. 23, 2014 Rise Set
Actual Time 7:57 AM CST 5:13 PM CST
Civil Twilight 7:24 AM CST 5:46 PM CST
Nautical Twilight 6:47 AM CST 6:23 PM CST
Astronomical Twilight 6:11 AM CST 6:59 PM CST
Moon 12:13 AM CST (1/23) 11:04 AM CST (1/23)
Length of Visible Light 10h 22m
Length of Day
9h 15m
Waning Gibbous, 55% of the Moon is Illuminated
Jan 23
Waning Gibbous
Jan 23
Last Quarter
Jan 30
New
Feb 6
First Quarter
Feb 14
Full

Hourly Weather History & Observations

Time (CST) Temp. Windchill Dew Point Humidity Pressure Visibility Wind Dir Wind Speed Gust Speed Precip Events Conditions
12:15 AM -16.6 °F -34.4 °F -22.0 °F 76% 30.56 in 10.0 mi NNW 8.1 mph - N/A Snow Light Snow
12:35 AM -16.6 °F -34.4 °F -22.0 °F 76% 30.57 in 7.0 mi NNW 8.1 mph - N/A Snow Light Snow
12:55 AM -18.4 °F -36.6 °F -23.8 °F 76% 30.56 in 10.0 mi NW 8.1 mph - N/A   Scattered Clouds
1:15 AM -18.4 °F -36.6 °F -23.8 °F 76% 30.58 in 10.0 mi NNW 8.1 mph - N/A   Scattered Clouds
1:35 AM -18.4 °F -36.6 °F -23.8 °F 76% 30.58 in 10.0 mi NNW 8.1 mph - N/A Snow Light Snow
1:55 AM -18.4 °F -36.6 °F -23.8 °F 76% 30.58 in 2.0 mi NNW 8.1 mph - N/A Snow Light Snow
2:15 AM -18.4 °F -36.6 °F -23.8 °F 76% 30.59 in 5.0 mi NNW 8.1 mph - N/A Snow Light Snow
2:35 AM -18.4 °F -35.1 °F -23.8 °F 76% 30.60 in 10.0 mi NW 6.9 mph - N/A   Scattered Clouds
2:55 AM -18.4 °F -36.6 °F -25.6 °F 70% 30.60 in 10.0 mi NNW 8.1 mph - N/A   Clear
3:15 AM -20.2 °F -38.8 °F -25.6 °F 76% 30.61 in 10.0 mi NNW 8.1 mph - N/A   Clear
3:35 AM -20.2 °F -38.8 °F -25.6 °F 76% 30.61 in 10.0 mi NNW 8.1 mph - N/A   Mostly Cloudy
3:55 AM -20.2 °F -37.3 °F -25.6 °F 76% 30.62 in 10.0 mi NNW 6.9 mph - N/A   Scattered Clouds
4:15 AM -20.2 °F -38.8 °F -25.6 °F 76% 30.62 in 10.0 mi NNW 8.1 mph - N/A   Clear
4:35 AM -20.2 °F -38.8 °F -25.6 °F 76% 30.62 in 10.0 mi NNW 8.1 mph - N/A   Scattered Clouds
4:55 AM -20.2 °F -37.3 °F -25.6 °F 76% 30.63 in 10.0 mi NNW 6.9 mph - N/A   Scattered Clouds
5:15 AM -20.2 °F -37.3 °F -25.6 °F 76% 30.63 in 10.0 mi NNW 6.9 mph - N/A   Clear
5:35 AM -20.2 °F -35.5 °F -25.6 °F 76% 30.63 in 10.0 mi NNW 5.8 mph - N/A   Scattered Clouds
5:55 AM -20.2 °F -35.5 °F -25.6 °F 76% 30.63 in 7.0 mi NNW 5.8 mph - N/A   Scattered Clouds
6:15 AM -20.2 °F -30.9 °F -25.6 °F 76% 30.64 in 5.0 mi NNW 3.5 mph - N/A   Haze
6:35 AM -20.2 °F - -25.6 °F 76% 30.64 in 10.0 mi Calm Calm - N/A   Mostly Cloudy
6:55 AM -20.2 °F -33.5 °F -25.6 °F 76% 30.64 in 10.0 mi WNW 4.6 mph - N/A   Overcast
7:15 AM -20.2 °F -30.9 °F -25.6 °F 76% 30.64 in 10.0 mi WNW 3.5 mph - N/A   Scattered Clouds
7:35 AM -20.2 °F -30.9 °F -25.6 °F 76% 30.64 in 10.0 mi NW 3.5 mph - N/A   Clear
7:55 AM -22.0 °F - -25.6 °F 83% 30.64 in 10.0 mi Calm Calm - N/A   Clear
8:15 AM -22.0 °F - -27.4 °F 76% 30.64 in 5.0 mi Calm Calm - N/A   Haze
8:35 AM -22.0 °F -33.0 °F -27.4 °F 76% 30.64 in 10.0 mi West 3.5 mph - N/A   Clear
8:55 AM -18.4 °F -28.9 °F -23.8 °F 76% 30.63 in 10.0 mi West 3.5 mph - N/A   Clear
9:15 AM -20.2 °F -30.9 °F -25.6 °F 76% 30.64 in 10.0 mi West 3.5 mph - N/A   Clear
9:35 AM -16.6 °F -26.8 °F -22.0 °F 76% 30.64 in 10.0 mi West 3.5 mph - N/A   Clear
9:55 AM -14.8 °F -24.8 °F -20.2 °F 77% 30.63 in 10.0 mi West 3.5 mph - N/A   Clear
10:15 AM -14.8 °F -24.8 °F -18.4 °F 84% 30.63 in 10.0 mi SW 3.5 mph - N/A   Clear
10:35 AM -13.0 °F -27.0 °F -18.4 °F 77% 30.63 in 10.0 mi SW 5.8 mph - N/A   Clear
10:55 AM -13.0 °F -27.0 °F -16.6 °F 84% 30.63 in 10.0 mi WSW 5.8 mph - N/A   Scattered Clouds
11:15 AM -11.2 °F -23.0 °F -14.8 °F 84% 30.63 in 10.0 mi SW 4.6 mph - N/A   Clear
11:35 AM -9.4 °F -22.7 °F -13.0 °F 84% 30.62 in 10.0 mi SW 5.8 mph - N/A   Clear
11:55 AM -7.6 °F -18.8 °F -13.0 °F 77% 30.60 in 10.0 mi WSW 4.6 mph - N/A   Clear
12:15 PM -7.6 °F -22.1 °F -11.2 °F 84% 30.59 in 10.0 mi SW 6.9 mph - N/A   Clear
12:35 PM -5.8 °F -18.4 °F -9.4 °F 84% 30.58 in 10.0 mi SW 5.8 mph - N/A   Clear
12:55 PM -5.8 °F -18.4 °F -9.4 °F 84% 30.56 in 10.0 mi SW 5.8 mph - N/A   Clear
1:15 PM -4.0 °F -16.3 °F -7.6 °F 85% 30.55 in 10.0 mi SW 5.8 mph - N/A   Clear
1:35 PM -4.0 °F -17.8 °F -7.6 °F 85% 30.53 in 10.0 mi SSW 6.9 mph - N/A   Clear
1:55 PM -4.0 °F -19.0 °F -7.6 °F 85% 30.51 in 10.0 mi SSW 8.1 mph - N/A   Clear
2:15 PM -4.0 °F -20.2 °F -7.6 °F 85% 30.50 in 10.0 mi SW 9.2 mph - N/A   Clear
2:35 PM -4.0 °F -23.0 °F -9.4 °F 78% 30.49 in 10.0 mi SW 12.7 mph - N/A   Clear
2:55 PM -4.0 °F -20.2 °F -11.2 °F 71% 30.48 in 10.0 mi SW 9.2 mph - N/A   Clear
3:15 PM -4.0 °F -20.2 °F -11.2 °F 71% 30.46 in 10.0 mi SSW 9.2 mph - N/A   Clear
3:35 PM -4.0 °F -22.1 °F -11.2 °F 71% 30.46 in 10.0 mi SSW 11.5 mph - N/A   Clear
3:55 PM -4.0 °F -21.2 °F -11.2 °F 71% 30.44 in 10.0 mi SSW 10.4 mph - N/A   Clear
4:15 PM -4.0 °F -19.0 °F -11.2 °F 71% 30.43 in 10.0 mi SSW 8.1 mph - N/A   Clear
4:35 PM -4.0 °F -20.2 °F -9.4 °F 78% 30.40 in 10.0 mi South 9.2 mph - N/A   Clear
4:55 PM -4.0 °F -20.2 °F -9.4 °F 78% 30.38 in 10.0 mi South 9.2 mph - N/A   Clear
5:15 PM -4.0 °F -20.2 °F -11.2 °F 71% 30.35 in 10.0 mi South 9.2 mph - N/A   Clear
5:35 PM -4.0 °F -22.1 °F -11.2 °F 71% 30.33 in 10.0 mi South 11.5 mph - N/A   Clear
5:55 PM -4.0 °F -22.1 °F -11.2 °F 71% 30.30 in 10.0 mi South 11.5 mph - N/A   Clear
6:15 PM -4.0 °F -22.1 °F -9.4 °F 78% 30.28 in 10.0 mi South 11.5 mph - N/A   Clear
6:35 PM -5.8 °F -25.2 °F -9.4 °F 84% 30.24 in 10.0 mi South 12.7 mph - N/A   Clear
6:55 PM -4.0 °F -22.1 °F -9.4 °F 78% 30.22 in 10.0 mi South 11.5 mph - N/A   Clear
7:15 PM -4.0 °F -23.0 °F -7.6 °F 85% 30.20 in 10.0 mi South 12.7 mph - N/A   Clear
7:35 PM -0.4 °F -16.7 °F -7.6 °F 72% 30.20 in 10.0 mi SSW 10.4 mph - N/A   Clear
7:55 PM 1.4 °F -15.3 °F -5.8 °F 72% 30.16 in 10.0 mi South 11.5 mph - N/A   Clear
8:15 PM 1.4 °F -18.8 °F -5.8 °F 72% 30.12 in 10.0 mi SSW 17.3 mph - N/A   Clear
8:35 PM 3.2 °F -16.5 °F -4.0 °F 72% 30.09 in 10.0 mi SSW 17.3 mph - N/A   Clear
8:55 PM 5.0 °F -13.6 °F -2.2 °F 72% 30.08 in 10.0 mi SSW 16.1 mph - N/A   Clear
9:15 PM 6.8 °F -11.8 °F -0.4 °F 72% 30.05 in 10.0 mi SSW 17.3 mph 21.9 mph N/A   Scattered Clouds
9:35 PM 8.6 °F -9.5 °F -0.4 °F 67% 30.02 in 10.0 mi SSW 17.3 mph 26.5 mph N/A   Clear
9:55 PM 8.6 °F -10.5 °F -0.4 °F 67% 30.00 in 10.0 mi SSW 19.6 mph 26.5 mph N/A   Clear
10:15 PM 8.6 °F -8.9 °F -0.4 °F 67% 29.97 in 10.0 mi SSW 16.1 mph 25.3 mph N/A   Clear
10:35 PM 10.4 °F -9.1 °F 1.4 °F 67% 29.93 in 10.0 mi SSW 21.9 mph 31.1 mph N/A   Clear
10:55 PM 10.4 °F -8.2 °F 1.4 °F 67% 29.89 in 7.0 mi SW 19.6 mph 29.9 mph N/A   Clear
11:15 PM 12.2 °F -6.7 °F 3.2 °F 67% 29.87 in 10.0 mi SSW 21.9 mph 29.9 mph N/A   Clear
11:35 PM 12.2 °F -5.8 °F 3.2 °F 67% 29.85 in 10.0 mi SW 19.6 mph 29.9 mph N/A   Clear
11:55 PM 12.2 °F -4.3 °F 3.2 °F 67% 29.86 in 10.0 mi SW 16.1 mph - N/A   Scattered Clouds